Voltar ao catálogo

YAOGAN-31 M

AtivoMilitarLEO
NORAD 47857·PAYLOAD·🇨🇳 China

Lançado Mar 13, 2021 de Jiuquan Satellite Launch Center

Loading…

Próximas Passagens (próximas 24 horas)

TLE

AtualizadoSource: Space-Track

Época: Sep 14, 2026, 15:30 UTC

1 47857U 21020D   26257.64644348 -.00000304  00000-0 -32636-3 0  9999
2 47857  63.4077  28.1806 0182402   0.7372 359.3889 13.45450991270499

Acompanhe YAOGAN-31 M em tempo real com AllMySat

Download on the App Store